Вернуться в каталог

STARLINK-37782

АктивенСвязьSSO
NORAD 69342·PAYLOAD·🇺🇸 United States

Запущен Jun 3, 2026 с Vandenberg Space Force Base

Loading…

Ближайшие Пролёты (ближайшие 24 часа)

TLE

СвежийSource: CelesTrak SupGP

Эпоха: Sep 14, 2026, 15:02 UTC

1 69342C 26122P   26257.62687500 -.00023020  00000+0 -71449-3 0  2576
2 69342  97.2825 286.3376 0001048 107.9404 107.0327 15.33455289    18

Отслеживайте STARLINK-37782 в реальном времени с AllMySat

Download on the App Store